Location: Brockett
(40.8000°S, 175.4500°E)
Time: 03:21:28
(UTC+00:00)

Cosmos 2150 Rocket - Pass Details

Date: 04 August 2024
Orbit: 747 x 805 km, 74.0° (Epoch: 07 September)

Event Time Altitude Azimuth Distance (km) Brightness Sun altitude
Rises 18:17:49 0° 345° (NNW) 3,193 7.2 -12.2°
Reaches altitude 10° 18:20:09 10° 345° (NNW) 2,272 6.4 -11.7°
Maximum altitude 18:25:19 84° 72° (ENE) 766 4.1 -10.8°
Drops below altitude 10° 18:30:32 10° 159° (SSE) 2,301 6.6 -9.8°
Sets 18:32:55 0° 160° (SSE) 3,236 7.3 -9.4°
